sat.trackr.live / text

‹ back to catalog

STARLINK-32908

NORAD 63084 · 2025-037H

PAYLOAD ACTIVE UNKNOWN

§ Identity

Operator
Country
US
Launch date
2025-02-23
Launch site
AFWTR
Launch vehicle
Mass (kg)
RCS (m²)

Purposes: comms

External: N2YO · Heavens-Above · Gunter

§ Orbital elements

Epoch: 2026-05-25T03:18:54.109728Z

Period
96.11 min
Inclination
70.0004°
Eccentricity
0.0003868
Mean motion
14.98337631 rev/d
Perigee alt
569.3 km
Apogee alt
574.7 km
Semi-major
6,950.2 km
B*
2.5471e-4
RAAN
161.6837°
Arg perigee
267.2156°
Mean anomaly
92.8560°
Rev number
6,991

§ Raw data

STARLINK-329081 63084U 25037H   26145.13812627  .00002948  00000+0  25471-3 0  99902 63084  70.0004 161.6837 0003868 267.2156  92.8560 14.98337631 69910

JSON: /api/v1/satellites/63084 · /tle

For live sub-satellite position, see the globe view (requires WebGL).

§ Visibility from observer

Set your observer location to see the next 7 days of passes ≥ 10°. The values pass through the URL so the page stays shareable.

No JS? Fill the form by hand. The geolocation button needs JavaScript.